GFSNE_sfc_wetblb_003.txt.gz
Wetbulb
43.50 43.48 43.13 43.58 44.74 45.69 45.39 44.45 42.44 38.98 40.00 44.69 46.96 50.85 53.17 55.20 63.00 64.24 63.72 64.59 65.42 65.12 65.04 65.09 65.23 66.21 65.73 66.41 66.09 65.08 63.22 61.76 59.76 57.77 57.88 57.12 56.14 55.94
43.45 43.18 43.03 44.18 44.87 45.72 45.33 44.54 44.40 42.97 40.35 46.54 48.73 50.11 53.56 57.30 63.27 63.65 62.98 63.45 64.63 64.82 63.83 63.34 64.19 65.19 65.15 64.95 64.13 63.05 62.66 60.40 58.35 57.41 57.68 56.67 55.71 55.47
42.48 43.53 43.81 44.77 45.34 45.04 45.80 46.07 45.01 45.24 43.34 46.09 49.96 50.86 51.50 53.07 61.05 62.68 62.12 62.69 63.48 64.31 63.52 62.70 63.02 63.58 63.66 62.56 61.70 61.86 60.46 59.52 57.35 57.30 57.00 56.19 55.25 54.86
42.35 42.71 43.82 45.48 45.00 45.91 45.48 45.79 46.48 47.19 47.57 46.59 49.71 50.85 52.55 54.31 59.07 60.67 61.34 62.33 62.34 63.62 63.15 62.66 62.13 61.95 61.22 60.45 60.34 59.56 58.81 58.02 56.52 57.11 56.51 55.37 54.34 54.17
42.23 42.46 44.07 44.79 44.33 44.74 46.20 47.48 48.74 50.70 50.12 48.95 48.33 50.27 53.53 54.93 58.59 59.40 60.43 60.48 61.50 62.20 62.43 62.18 61.65 61.12 60.07 59.37 58.47 57.64 57.17 56.18 56.25 56.55 55.30 54.16 53.74 53.58
43.35 44.09 44.84 45.40 44.27 45.42 47.82 48.89 49.94 49.58 50.37 50.02 49.49 49.89 52.55 54.59 57.53 56.88 57.15 58.61 58.99 61.02 61.02 60.71 61.58 60.73 59.72 59.04 57.89 56.68 55.25 55.01 55.96 55.33 54.23 53.12 53.49 52.91
43.16 44.52 45.98 47.25 49.48 50.26 50.10 50.14 51.45 50.11 49.69 49.88 50.18 51.42 51.43 51.45 54.59 56.46 55.08 55.89 57.23 59.61 59.00 58.60 58.82 58.28 58.20 58.93 56.84 55.78 54.35 54.67 55.45 54.22 53.06 53.09 52.51 52.03
42.04 43.32 45.39 47.42 47.81 51.34 51.57 53.11 53.46 51.21 50.64 51.13 51.02 50.64 51.36 54.06 55.44 54.65 54.53 53.50 53.52 59.04 57.40 56.56 57.25 55.49 56.04 55.30 56.29 55.55 54.26 54.19 54.53 54.02 53.04 52.70 51.88 51.32
41.65 43.13 44.26 46.19 47.51 46.91 50.30 52.78 53.38 55.95 54.99 53.08 51.42 51.22 51.54 53.76 55.03 53.63 54.48 53.84 53.41 56.42 55.59 53.96 55.10 53.55 54.79 54.69 55.89 55.19 54.18 53.67 53.73 53.31 53.02 52.57 51.50 51.06
42.32 43.33 44.53 45.85 45.18 47.13 48.89 49.61 50.80 53.02 55.43 55.32 53.63 53.24 52.49 56.11 56.49 55.44 55.70 54.87 54.96 56.26 55.27 50.72 52.68 49.65 52.38 52.31 55.25 54.74 53.78 52.84 52.60 52.58 52.91 52.19 51.17 50.64
42.82 44.48 45.10 44.58 47.05 50.16 49.08 48.94 49.76 51.57 55.93 57.84 56.37 55.72 55.64 56.34 57.62 56.42 55.08 53.65 52.83 52.88 53.48 51.24 50.43 47.29 47.61 49.04 53.34 54.04 52.83 51.98 52.07 52.69 52.70 51.55 50.31 50.10
44.38 44.19 46.05 45.66 48.67 50.09 49.07 49.42 49.76 52.05 55.50 55.80 56.29 56.05 56.44 56.41 58.52 57.53 56.84 54.13 52.64 51.06 52.44 49.68 49.55 48.57 45.79 46.65 49.08 51.90 50.56 51.61 51.15 51.86 51.79 50.68 49.35 44.58
41.99 41.56 43.47 46.71 48.63 50.27 52.15 51.26 53.04 55.17 55.75 55.74 56.15 55.42 55.38 55.64 58.03 58.70 58.42 56.25 53.19 51.11 54.07 51.64 50.56 47.86 46.15 47.02 49.51 49.24 48.45 48.29 47.55 49.31 50.40 48.98 48.64 47.38
40.56 41.82 43.11 46.74 48.78 50.25 50.29 52.23 54.12 55.54 56.86 55.81 55.11 54.86 54.62 56.89 57.65 58.82 59.00 57.91 57.46 55.07 55.02 53.55 51.19 49.82 46.86 46.35 47.20 48.78 44.70 45.10 46.77 45.61 44.81 47.88 50.00 50.37
42.08 43.94 46.18 47.58 48.64 48.41 49.52 50.96 52.75 54.64 56.01 54.56 53.56 54.82 56.39 58.40 58.69 59.04 59.25 58.63 56.91 56.01 55.46 54.21 53.09 49.49 48.85 48.08 46.96 47.11 44.82 44.00 45.27 45.09 43.69 43.80 43.99 44.31
43.65 43.03 45.85 46.76 47.14 47.11 47.02 48.23 49.86 52.46 55.80 54.12 54.25 56.72 58.65 58.16 58.22 58.90 57.59 56.60 54.36 53.82 53.38 53.29 53.45 51.16 47.50 48.83 48.58 46.27 44.62 43.24 44.93 44.49 44.04 43.21 44.44 45.46
43.94 43.58 43.95 42.98 42.95 43.89 44.49 45.67 47.64 50.64 56.71 56.34 56.06 56.88 57.88 57.88 58.09 58.73 57.21 55.88 53.67 51.58 50.16 51.19 51.42 50.35 49.60 49.55 46.80 47.41 45.47 43.71 45.39 44.79 43.61 42.78 43.65 45.45
42.90 41.74 42.15 42.14 41.61 42.45 42.95 43.64 45.64 48.10 52.93 56.59 56.74 57.65 57.81 57.54 57.52 57.06 56.27 55.30 53.24 51.45 50.56 50.27 49.88 48.98 48.60 48.29 49.94 46.97 44.55 44.50 45.71 45.57 44.86 42.49 42.00 43.04
39.88 40.59 41.73 42.38 41.65 42.19 42.73 43.27 43.91 46.77 50.74 56.27 57.22 58.08 58.29 58.18 56.50 55.26 54.66 54.56 52.45 51.58 50.96 51.05 50.59 49.35 46.76 43.23 43.64 46.42 46.76 45.60 45.40 44.47 45.03 42.73 41.96 42.29
39.08 40.32 41.26 42.67 41.93 41.72 42.45 43.02 44.19 46.48 50.42 56.99 57.21 58.13 58.39 57.69 55.23 54.16 54.11 52.71 51.51 51.16 49.91 50.88 50.61 50.33 48.73 45.67 44.04 42.62 45.15 46.02 45.93 44.43 43.19 42.35 44.66 47.02
38.45 40.31 41.75 42.68 41.86 41.84 42.76 43.50 44.85 46.75 49.98 53.95 57.62 58.05 58.18 56.73 54.39 54.03 53.49 51.55 51.22 50.31 49.11 49.84 51.23 50.86 47.11 47.98 45.29 41.33 42.58 44.19 46.81 46.12 43.50 42.40 41.40 42.33
38.85 40.28 41.54 42.70 42.07 42.18 42.62 43.53 44.41 46.87 50.08 54.56 58.18 58.16 57.62 56.51 54.23 53.70 52.81 51.42 51.37 50.56 50.59 50.19 48.72 49.24 48.90 47.87 44.16 40.44 41.59 42.54 44.19 44.53 44.83 44.37 42.62 40.32
38.97 40.33 41.51 42.72 42.45 42.67 42.88 43.56 44.12 46.03 48.06 49.52 58.04 58.01 56.94 55.86 54.71 53.94 52.90 52.66 51.72 51.07 49.83 47.58 48.69 48.58 47.73 46.18 44.31 42.81 41.49 42.79 44.36 43.62 43.68 44.43 45.00 45.43

GFSNE_sfc_wetblb_006.txt.gz
Wetbulb
39.66 40.17 40.85 42.87 43.44 43.71 44.07 43.19 41.29 37.53 38.05 41.52 43.41 45.64 50.06 52.27 53.69 53.95 55.03 57.74 65.07 65.12 65.18 65.26 65.78 66.31 66.91 67.55 67.51 66.39 65.46 64.01 62.42 59.96 59.03 58.52 57.53 57.00
40.71 40.79 41.76 42.84 42.73 44.02 44.52 44.70 44.31 41.89 38.37 41.83 42.68 45.02 48.85 52.58 52.80 53.18 54.18 57.50 64.29 65.02 64.32 63.75 64.69 65.32 65.93 66.28 65.59 65.00 64.14 63.51 61.01 58.91 58.78 57.93 57.14 56.50
40.18 40.59 41.24 42.40 42.57 43.65 45.10 44.79 44.05 43.49 40.66 43.30 45.04 47.04 48.51 50.08 51.58 53.01 54.38 59.04 63.73 64.96 64.39 63.33 63.37 64.02 64.43 64.38 63.82 63.38 62.84 61.78 59.57 58.51 58.43 57.31 56.57 55.95
39.73 40.12 40.78 43.31 42.30 43.71 44.80 44.75 43.95 44.53 43.61 42.71 45.11 46.46 49.06 50.93 51.38 53.16 54.98 62.61 63.39 64.47 64.34 63.45 62.74 62.72 62.79 62.35 61.59 61.58 60.44 59.68 58.85 58.30 57.83 56.91 55.91 55.42
40.08 40.21 41.01 41.72 41.57 43.21 44.78 44.11 45.21 46.28 46.40 45.73 45.58 49.62 49.72 50.16 50.31 53.37 54.25 62.25 63.16 63.33 63.76 63.13 62.57 62.25 61.55 60.41 59.82 58.84 58.08 57.51 57.46 57.87 56.93 55.79 55.10 54.65
41.13 41.76 42.22 42.54 42.85 44.29 45.51 45.45 46.44 48.05 48.73 48.02 47.40 48.64 49.33 50.08 51.44 52.66 55.35 60.97 61.01 62.77 62.82 62.54 62.77 61.76 60.70 60.00 58.87 57.25 55.97 55.96 57.06 56.48 55.40 54.67 54.34 53.97
41.74 42.27 43.26 45.09 49.02 48.41 46.39 46.49 46.40 47.71 49.14 48.49 48.70 48.74 48.57 48.34 48.95 52.06 57.06 59.48 60.48 61.12 60.46 61.01 61.17 60.25 59.67 59.77 57.51 56.18 54.97 55.65 56.37 55.33 54.28 53.99 53.53 53.15
41.52 42.76 42.71 45.85 46.20 49.26 49.47 49.73 49.53 49.26 49.77 49.03 48.46 47.82 48.17 50.22 52.12 51.66 56.07 57.20 55.99 60.58 58.74 58.53 59.84 58.43 57.61 56.80 56.85 55.85 54.82 55.42 55.07 54.19 53.59 53.38 52.55 52.36
43.04 41.75 41.71 44.17 46.13 45.83 47.51 48.91 50.67 52.04 53.08 52.00 49.67 50.35 50.55 52.09 52.84 52.62 55.84 56.95 56.28 58.26 57.91 55.46 57.74 55.85 55.75 55.31 56.00 55.25 54.69 54.63 53.97 53.36 53.20 53.01 52.10 52.00
40.98 41.33 41.68 43.05 45.06 45.24 45.08 47.32 48.05 49.41 51.07 53.41 52.26 53.38 53.80 54.25 53.90 56.95 57.39 57.43 57.21 58.27 58.43 53.51 55.61 53.79 52.74 53.40 55.23 54.59 53.95 53.61 53.04 52.92 53.17 52.72 52.01 52.09
40.80 41.63 42.87 42.97 46.21 47.91 46.60 46.60 47.68 49.71 53.51 55.23 56.11 56.03 56.13 55.62 55.52 56.33 55.49 53.84 53.73 55.06 56.62 53.10 53.16 50.00 49.84 52.60 53.58 53.73 52.84 52.67 52.73 52.95 53.08 52.14 51.12 51.51
42.21 41.82 44.73 44.27 46.77 48.46 46.92 47.19 46.99 48.71 52.65 54.53 55.28 55.30 56.00 55.75 56.61 56.52 56.25 53.78 53.56 52.25 53.59 51.63 50.85 49.30 47.41 49.10 51.72 51.52 50.34 52.09 51.61 52.08 52.23 51.41 50.41 44.38
40.93 40.96 41.32 45.63 47.14 48.81 49.56 47.24 48.15 50.48 51.27 53.59 55.17 54.85 55.17 55.00 55.39 57.26 57.29 55.56 53.34 51.15 53.58 51.50 51.31 47.03 46.43 47.53 50.56 48.65 47.74 48.63 47.08 49.55 50.95 49.93 48.93 46.41
40.62 41.17 41.23 45.72 47.39 48.56 47.23 49.11 50.09 49.88 50.53 53.39 54.46 54.22 54.23 53.99 54.92 57.33 57.65 57.09 56.20 54.10 54.34 52.30 50.55 48.84 47.31 46.56 46.81 48.68 44.10 44.43 45.61 45.33 44.46 47.71 49.68 49.78
42.71 43.21 45.15 46.26 47.62 46.30 47.13 48.47 48.39 46.71 47.63 48.37 53.65 54.20 54.58 54.95 56.37 57.57 57.78 57.07 55.83 54.51 54.62 51.74 51.76 48.12 47.78 46.96 46.46 47.63 44.68 42.81 44.15 44.22 43.16 43.92 44.38 45.24
42.51 41.03 44.82 45.90 46.72 45.82 44.76 45.33 45.77 45.98 46.35 48.28 54.00 55.17 55.82 55.34 56.39 57.69 56.40 55.04 53.28 52.48 53.49 51.77 52.06 50.01 45.92 47.96 47.89 46.23 44.09 42.68 44.24 43.41 42.71 42.61 43.48 45.03
42.71 41.23 41.49 41.50 42.26 43.18 42.60 43.44 44.62 45.27 45.85 52.70 54.61 54.98 55.47 55.95 56.31 57.79 56.83 54.85 52.41 50.74 49.37 49.83 50.12 48.39 48.31 48.81 46.14 46.61 44.51 42.34 44.56 43.38 42.02 41.33 42.41 44.11
39.96 38.38 38.77 40.38 41.24 42.46 41.34 41.74 43.12 44.53 45.30 47.48 54.92 54.96 55.66 56.22 55.98 56.91 56.76 54.51 52.25 50.78 49.93 48.45 48.88 47.95 47.95 47.69 49.46 45.79 44.67 43.21 44.18 43.95 43.03 41.68 41.20 42.51
36.57 36.95 38.10 40.01 41.28 42.41 41.39 41.58 41.79 43.66 45.80 47.15 52.68 55.48 56.09 57.03 56.10 56.55 55.46 54.63 52.32 51.39 49.58 49.36 49.25 48.57 46.84 44.37 43.45 46.34 45.35 43.89 43.75 43.23 43.81 42.16 41.53 42.08
36.08 36.41 37.79 39.97 41.52 42.16 41.36 41.54 42.34 43.51 45.02 47.30 49.81 56.18 56.66 57.35 56.58 55.52 55.37 53.98 52.22 51.06 49.03 49.79 49.80 49.86 48.56 45.08 43.49 42.33 44.78 44.97 44.49 43.38 41.86 42.27 44.48 46.83
35.51 36.73 38.36 40.30 41.74 42.55 41.86 42.18 42.80 43.46 45.16 47.31 50.96 56.79 57.74 57.60 56.22 55.60 55.57 52.65 51.86 50.27 48.81 49.22 50.95 50.25 46.38 46.96 44.39 41.63 43.24 44.37 46.39 45.59 43.03 42.54 43.44 43.41
35.63 36.91 38.31 40.62 42.13 42.93 41.95 42.23 42.78 43.42 44.92 46.44 48.05 57.06 58.36 57.48 56.06 55.36 55.02 52.05 51.74 50.79 50.67 50.47 47.81 48.05 47.60 46.15 44.16 41.66 41.90 41.53 44.17 44.77 44.90 44.16 42.44 40.84
36.91 39.03 38.74 40.59 42.44 43.20 42.10 42.33 42.48 43.14 44.85 45.97 46.81 52.31 57.84 56.04 56.26 55.62 53.90 52.52 51.91 51.13 49.49 46.73 47.36 47.41 45.93 45.56 44.09 42.91 41.18 42.53 43.69 43.61 42.36 44.58 45.15 45.23

GFSNE_sfc_wetblb_009.txt.gz
Wetbulb
37.81 38.23 38.30 39.50 40.00 41.64 42.16 41.71 39.52 36.39 37.41 41.59 42.05 45.57 45.07 46.11 48.69 50.09 51.94 54.95 55.59 56.44 58.66 65.17 65.75 66.14 67.34 67.85 67.82 67.36 67.18 65.88 64.93 63.16 60.69 59.85 59.09 58.12
39.13 38.23 38.82 40.02 40.59 41.66 41.99 42.09 42.66 41.13 38.05 42.26 43.03 44.86 45.67 46.84 48.05 49.32 51.78 53.73 55.53 56.07 57.47 63.67 64.85 65.50 66.45 66.50 66.35 66.25 65.68 65.29 64.34 61.86 59.88 59.41 58.37 57.62
38.20 38.49 39.13 40.15 40.22 41.02 41.77 42.18 42.25 43.16 40.67 42.39 43.51 44.53 44.75 46.01 46.11 49.39 52.18 52.87 53.61 56.13 59.75 63.26 63.55 64.44 65.00 64.97 64.87 64.68 64.28 63.85 63.21 60.41 59.50 58.73 57.91 57.19
38.09 38.49 39.02 41.33 39.98 41.07 41.68 41.46 42.49 43.93 43.13 40.91 42.96 43.34 44.64 46.81 47.68 48.43 51.98 54.58 55.37 57.01 63.03 63.78 63.13 63.26 63.30 63.40 62.95 62.85 62.25 61.82 61.01 59.63 59.26 58.26 57.34 56.74
38.65 38.88 39.47 39.97 39.64 40.59 41.08 41.51 43.73 45.25 45.55 44.07 43.77 46.84 47.14 48.40 48.31 50.53 51.89 52.54 54.34 57.58 63.88 63.63 63.03 62.78 62.47 61.83 60.94 60.30 59.43 58.78 58.55 58.94 58.79 57.60 56.71 56.18
40.10 40.68 40.61 40.79 40.73 40.98 41.80 43.51 45.34 45.45 45.01 44.39 44.84 46.84 46.62 48.84 49.40 48.04 49.33 52.49 54.19 61.82 63.63 63.37 63.29 62.63 62.01 61.05 60.13 58.37 56.99 57.08 57.70 57.50 56.94 56.50 55.75 55.13
40.79 41.71 42.04 44.17 48.43 47.55 44.87 45.10 45.29 44.61 44.68 44.64 46.87 47.66 46.96 48.21 47.52 49.86 50.34 51.86 56.61 61.86 62.09 62.06 62.20 61.75 61.30 60.86 58.68 56.96 55.99 56.58 57.35 56.90 55.56 54.75 54.85 54.40
40.48 40.59 41.68 44.54 44.11 47.97 48.71 48.91 47.35 45.55 45.87 46.73 48.00 47.77 47.63 45.88 48.55 49.05 49.39 49.63 56.03 62.15 60.76 60.31 61.58 60.01 60.09 58.62 58.13 56.47 55.76 56.24 56.15 55.32 54.52 54.46 53.98 53.73
38.21 39.21 40.24 42.51 44.21 43.01 46.17 48.22 47.86 50.41 50.91 49.38 48.75 49.27 47.46 49.21 50.34 51.00 51.08 50.48 57.47 60.38 60.41 58.12 60.36 58.04 57.96 56.65 56.36 55.66 55.61 55.41 54.60 53.96 53.76 53.65 53.18 53.12
38.70 39.44 39.62 40.24 41.91 43.67 43.12 44.76 46.42 47.48 49.05 50.97 51.86 51.89 49.80 53.12 53.37 53.13 53.46 52.64 59.20 60.08 60.04 55.78 57.73 54.74 55.14 55.31 55.42 55.07 54.93 54.22 53.36 53.31 53.46 53.15 52.68 53.04
39.41 40.03 40.37 41.14 44.72 46.87 44.48 45.27 46.45 46.51 50.20 52.44 53.14 55.45 55.36 55.46 54.65 54.19 53.46 55.25 55.65 56.63 58.48 55.43 53.30 51.87 52.90 53.63 54.12 54.07 53.59 53.11 53.06 53.21 53.42 52.71 52.07 52.72
40.98 41.02 44.72 43.04 46.04 46.89 45.01 46.23 43.36 45.00 48.09 48.79 50.33 55.27 55.24 55.29 56.14 54.79 55.57 55.91 55.53 54.56 56.08 51.79 52.40 50.54 47.40 50.87 52.12 51.66 51.46 52.57 52.07 52.34 52.66 52.06 51.24 45.87
40.89 40.71 41.64 45.13 46.23 47.05 48.13 45.60 45.90 48.47 47.92 47.47 50.68 54.23 54.40 54.58 55.23 56.02 56.56 57.87 55.45 52.73 56.08 53.64 53.56 48.77 48.83 48.25 50.73 47.23 48.60 49.99 48.57 50.42 51.59 50.79 49.82 45.95
41.16 41.99 42.01 45.05 46.58 47.28 47.18 48.11 48.73 47.94 45.94 46.25 47.93 52.50 53.06 53.53 54.72 55.90 57.03 58.14 57.67 54.76 54.78 55.26 53.87 50.54 48.51 49.37 47.81 47.04 44.31 45.03 46.54 46.31 45.16 48.94 49.71 49.01
43.46 44.31 45.07 45.69 46.26 45.51 46.77 47.80 46.96 44.65 44.76 44.70 45.40 47.56 54.26 55.14 54.99 56.51 56.90 57.47 54.25 54.95 54.69 55.52 54.70 49.20 48.60 49.83 47.29 47.60 43.92 42.59 43.87 44.35 43.00 43.62 44.35 44.91
43.18 39.19 43.10 44.09 44.86 44.83 45.03 45.18 44.03 44.24 44.58 44.79 45.43 47.57 54.95 54.59 54.34 56.22 55.33 54.60 52.15 52.58 53.26 53.26 53.93 50.44 45.80 48.24 48.56 46.57 42.96 42.29 43.03 42.37 41.98 42.18 43.11 44.68
41.37 38.81 38.34 38.58 39.16 41.05 43.30 43.29 42.99 43.57 43.73 44.67 45.34 49.69 54.41 54.21 54.33 56.39 55.45 53.65 51.59 50.65 49.33 50.23 50.66 47.56 47.57 48.37 45.75 46.71 44.35 41.98 44.45 41.97 41.35 40.69 41.72 43.66
38.28 35.60 35.69 36.81 37.92 40.25 41.87 41.59 41.92 42.85 43.43 44.24 45.38 49.84 54.28 53.95 54.41 55.93 54.95 53.01 51.07 50.48 49.35 48.08 47.99 46.78 46.97 46.50 48.89 45.73 44.52 42.58 43.58 43.01 41.96 40.80 40.44 41.90
34.96 34.41 34.94 36.25 37.72 40.43 41.94 41.62 40.69 42.27 43.88 44.62 45.38 48.15 54.93 54.71 54.69 55.37 54.23 52.69 50.98 50.19 49.25 48.68 48.13 47.24 45.14 43.41 43.76 46.69 45.15 43.66 42.95 42.35 42.19 41.37 41.05 41.60
34.32 34.19 34.71 36.28 37.70 40.16 41.93 41.55 41.16 42.27 43.02 44.10 45.75 49.13 54.92 55.18 55.37 55.44 54.00 52.18 51.04 50.22 48.31 48.69 48.56 48.23 47.06 45.45 43.29 42.42 45.03 43.98 43.42 42.45 41.11 42.28 44.35 46.61
34.12 34.24 35.35 36.37 37.97 40.67 42.59 42.13 41.71 42.06 42.92 43.62 45.64 47.36 52.40 55.34 55.53 55.54 54.31 51.95 51.21 49.54 47.91 48.06 49.34 50.30 46.25 46.42 43.36 40.74 42.36 43.27 45.14 44.34 42.62 42.10 43.07 43.65
34.41 34.42 35.43 36.53 38.69 41.22 42.77 42.00 41.56 41.94 42.21 43.16 44.68 46.20 47.09 56.23 56.20 55.43 54.25 52.22 51.16 50.03 49.64 50.42 47.65 47.50 46.83 45.57 42.86 41.42 40.96 41.29 44.03 44.99 44.99 44.15 42.63 41.13
37.95 38.41 37.84 36.60 39.08 41.34 42.77 41.71 41.32 41.80 42.09 42.85 44.02 45.27 45.93 55.48 56.85 56.20 54.20 52.89 50.91 50.68 50.02 46.99 46.76 46.83 44.55 45.05 43.66 42.68 40.93 42.27 42.94 42.61 41.78 44.36 45.02 45.34

GFSNE_sfc_wetblb_015.txt.gz
Wetbulb
44.95 44.91 44.35 44.69 45.05 44.82 44.55 43.76 41.39 38.55 39.85 43.75 43.76 47.69 48.16 48.72 49.49 49.62 49.30 50.74 51.94 52.09 52.22 52.86 53.49 55.51 57.54 59.63 60.56 66.87 67.23 67.56 67.35 67.03 66.38 64.62 62.43 61.57
44.46 44.14 44.33 44.63 44.67 44.94 44.73 44.74 44.36 42.20 40.21 43.99 45.11 46.97 47.83 48.05 49.77 49.20 49.46 50.85 51.53 52.25 52.34 51.94 53.11 55.14 58.44 58.61 59.05 65.51 66.17 66.48 66.52 66.60 65.92 63.73 61.91 60.88
44.17 43.70 43.74 44.64 44.33 44.88 45.27 45.02 44.37 44.21 42.06 43.89 45.87 47.17 47.07 47.38 48.05 48.47 48.97 49.60 50.48 51.51 52.46 51.90 52.91 54.82 57.00 57.68 58.98 65.13 65.17 65.36 66.00 65.85 64.15 62.79 61.31 60.30
43.43 43.66 43.46 44.24 44.72 45.33 45.11 44.70 44.65 45.03 44.04 42.47 44.86 45.85 46.25 46.86 48.95 47.20 47.36 48.99 49.51 50.62 52.14 52.30 52.64 53.94 57.04 56.87 61.45 63.88 63.81 64.13 64.80 63.90 62.70 61.92 60.38 59.72
43.37 43.58 43.99 44.47 44.33 44.89 44.78 44.32 44.75 45.02 45.23 44.40 43.10 46.08 47.20 48.69 46.37 47.59 47.75 48.05 49.73 50.89 52.12 53.36 53.70 55.07 57.05 57.70 61.75 61.99 61.91 61.91 61.54 60.70 60.80 60.75 59.69 59.08
44.11 44.50 44.70 44.90 44.49 44.26 44.67 45.03 45.07 45.52 45.34 44.70 44.79 45.41 44.63 46.07 46.64 45.72 45.56 48.78 48.05 49.57 52.33 53.08 53.88 56.13 57.07 57.76 61.66 60.76 59.76 59.70 59.27 58.82 58.51 58.56 59.03 58.31
44.72 45.27 45.75 45.74 46.95 46.82 45.05 44.95 45.93 44.86 44.42 43.59 44.01 42.98 42.85 44.21 45.24 47.00 47.52 48.41 50.68 50.93 51.87 53.65 54.48 55.02 54.99 60.42 61.22 59.40 58.40 58.25 58.50 58.35 57.46 56.81 57.04 57.27
44.48 45.23 44.95 44.97 44.77 46.34 46.90 47.03 46.45 43.02 42.35 43.79 42.33 42.33 44.67 44.92 46.11 48.21 49.12 47.89 46.12 53.27 51.67 52.06 54.62 52.77 57.37 64.17 61.06 58.74 57.67 57.54 57.41 56.99 56.35 56.00 55.79 56.22
44.51 43.67 43.17 43.44 44.75 44.27 45.31 46.74 46.72 47.47 47.55 45.28 43.49 44.74 44.39 45.95 47.37 47.34 48.62 48.83 49.31 52.71 51.38 50.40 52.63 53.24 63.01 61.65 58.60 57.53 57.22 56.62 55.92 55.47 55.12 55.07 55.38 55.61
44.07 43.76 43.39 43.45 44.15 44.29 44.15 44.01 44.25 45.05 46.47 46.74 46.97 47.28 48.67 49.04 48.89 49.71 50.06 51.41 52.27 54.12 53.08 49.68 56.25 59.39 60.60 59.43 57.03 56.68 56.22 55.27 54.49 54.65 54.57 54.36 54.28 54.36
43.80 43.87 44.09 44.20 45.62 46.66 43.93 43.39 44.46 46.07 48.05 48.99 50.52 50.05 50.75 51.73 53.54 51.85 50.43 49.61 48.29 52.97 55.19 56.21 57.80 56.96 57.37 56.77 56.74 55.44 54.64 54.07 54.09 54.32 54.11 53.69 53.39 53.76
43.50 43.98 44.79 45.26 46.50 47.09 44.68 45.01 43.85 44.89 45.10 47.01 46.42 47.36 48.89 50.20 54.51 54.64 52.98 49.54 50.92 53.34 57.45 55.32 56.41 54.67 50.25 55.34 55.30 55.45 55.40 53.47 52.87 52.84 52.93 52.99 52.74 54.01
42.33 42.91 44.10 45.68 46.78 46.64 46.36 45.60 45.09 46.36 45.52 44.66 45.32 46.04 47.21 51.05 55.07 55.48 56.00 54.44 53.19 53.14 57.71 58.01 56.93 53.31 50.87 49.54 52.14 54.91 55.34 53.98 52.93 52.12 51.72 51.89 51.45 52.72
42.82 43.86 45.21 46.12 46.22 45.31 45.52 46.36 47.21 47.33 44.51 44.22 44.31 44.28 45.08 46.85 49.40 55.75 56.49 56.84 58.22 56.93 58.41 59.85 56.06 53.31 51.66 49.39 45.48 52.01 53.81 53.23 51.92 50.85 52.03 51.63 50.47 49.76
45.17 45.66 46.51 45.79 44.89 43.90 44.41 45.76 46.19 45.57 43.53 43.07 43.05 43.62 45.31 47.81 49.86 56.07 57.32 58.43 59.03 58.35 59.63 59.28 56.64 55.15 54.68 50.20 46.26 47.94 49.59 50.56 51.29 50.28 51.20 50.70 50.40 50.89
44.61 45.26 44.97 44.75 42.83 42.72 43.10 44.31 44.79 45.32 43.72 42.82 43.35 44.75 46.74 47.71 49.81 54.64 55.06 55.24 54.58 55.89 56.65 57.34 57.46 57.02 51.53 50.44 49.45 49.75 49.53 47.57 49.83 50.08 50.60 50.31 50.50 51.33
44.84 44.75 43.36 41.64 40.45 40.99 41.99 43.06 44.04 44.42 42.84 43.07 43.53 44.04 45.25 47.03 48.70 55.31 55.09 54.91 52.19 51.25 51.85 53.72 55.56 56.52 54.64 53.56 49.99 49.83 49.62 48.83 49.62 49.95 49.06 47.89 49.07 50.34
43.23 42.09 41.36 40.02 39.43 39.94 40.31 41.55 43.20 43.67 42.92 42.85 43.33 44.06 44.59 45.85 47.90 54.97 54.69 54.31 51.16 49.80 49.82 51.81 51.51 50.64 51.01 51.97 52.51 51.24 50.56 49.31 49.04 49.02 49.16 47.02 47.01 49.74
40.79 40.17 39.60 39.54 39.46 39.88 40.34 41.19 41.53 44.01 43.43 42.96 43.16 43.79 44.53 45.41 47.26 53.92 53.61 53.02 51.06 50.04 49.63 51.41 51.85 50.86 48.82 47.46 51.18 48.24 50.42 49.19 48.80 47.43 48.48 48.13 48.07 48.65
39.25 38.99 39.25 39.62 39.78 39.74 40.25 40.70 41.96 44.20 42.91 42.36 42.74 43.72 44.11 44.78 46.07 52.25 53.37 51.68 50.95 50.54 49.85 50.85 52.25 54.10 53.88 51.58 48.63 51.70 45.39 49.58 49.10 47.03 46.50 47.24 47.53 47.54
39.07 39.37 40.02 39.92 39.99 40.40 40.85 41.47 42.60 43.50 43.07 41.81 42.54 43.15 43.83 44.37 45.15 49.41 53.26 50.43 50.99 50.93 50.37 50.37 52.33 52.82 52.00 51.06 48.62 47.81 48.14 44.72 48.51 48.42 47.44 47.15 46.53 46.65
39.37 39.64 40.43 40.84 40.45 41.29 41.37 41.94 42.70 43.10 42.87 41.84 42.07 42.92 43.70 44.20 44.33 45.67 52.76 50.84 51.07 51.79 50.97 51.22 50.26 50.37 52.24 52.81 50.42 47.67 46.35 47.54 44.67 44.81 45.55 46.36 47.52 45.51
39.79 40.02 40.39 41.15 41.59 42.23 42.70 42.81 42.74 42.98 43.29 41.87 41.97 42.74 43.33 43.07 44.46 45.54 52.42 51.73 52.23 52.77 50.98 48.18 50.11 51.86 51.13 51.11 47.93 47.46 45.89 45.78 45.84 46.27 47.60 44.42 44.75 45.51

GFSNE_sfc_wetblb_021.txt.gz
Wetbulb
49.57 49.84 48.94 48.85 48.94 48.49 47.80 46.45 43.82 39.87 41.30 45.11 45.88 49.54 50.25 51.05 52.04 51.33 50.45 53.07 53.08 54.44 54.13 53.22 53.43 53.98 54.75 55.50 56.05 56.16 57.35 57.88 58.52 62.41 62.14 66.78 67.51 67.16
49.59 48.76 48.41 48.35 48.38 48.71 48.15 47.11 46.29 44.11 41.26 45.89 47.25 48.89 49.81 49.83 51.16 50.81 50.30 53.27 53.59 53.33 54.11 53.83 53.04 53.71 54.14 54.62 54.96 55.12 55.89 56.92 57.09 60.43 61.43 61.16 62.36 66.63
49.39 48.40 47.57 48.16 47.76 47.62 47.74 47.24 46.72 46.59 43.63 46.29 48.03 48.98 48.16 48.07 48.91 50.03 50.88 50.23 50.38 52.61 52.68 54.04 53.95 53.39 53.55 53.74 54.07 54.82 55.00 55.88 56.15 56.63 57.35 60.11 63.59 65.70
47.93 47.70 46.75 46.74 47.28 47.51 47.17 46.96 47.12 47.54 45.84 43.60 46.34 46.84 47.09 48.04 48.74 48.41 47.97 49.42 50.15 51.14 52.10 52.87 53.64 53.88 53.41 53.72 53.71 54.19 54.61 55.46 55.23 55.78 57.39 59.95 65.01 64.46
47.51 46.89 46.74 46.58 45.39 46.41 47.24 46.99 47.59 47.10 46.76 45.35 44.45 46.69 47.04 48.00 47.28 47.78 47.50 48.60 49.96 51.45 51.98 52.56 52.80 53.80 54.04 53.94 53.96 53.86 54.22 54.97 56.97 55.69 56.92 59.56 63.70 63.51
46.76 47.27 46.24 45.68 45.69 46.58 46.63 46.77 46.18 46.12 45.82 44.70 44.41 44.00 45.63 46.73 46.99 45.82 46.28 48.50 47.31 48.55 50.86 51.68 52.80 53.33 53.36 54.31 54.02 53.73 53.11 54.81 55.30 56.40 55.19 56.23 61.97 61.70
46.92 46.32 47.00 47.49 48.52 48.26 46.78 45.93 46.04 44.61 44.40 43.13 43.28 43.44 43.65 44.23 44.22 45.57 44.86 45.14 45.90 48.02 47.89 48.71 50.35 51.44 52.30 53.69 53.30 53.34 53.24 53.69 53.69 56.51 56.23 57.12 59.33 59.54
46.16 46.03 46.51 48.58 48.24 48.92 48.39 48.22 47.10 44.86 43.50 42.20 41.67 41.47 42.88 44.54 44.51 43.94 43.78 43.22 42.07 48.19 47.57 47.45 51.60 50.45 51.78 52.70 53.35 53.60 53.80 51.69 52.55 55.57 56.26 58.21 57.67 58.24
45.97 46.81 46.56 46.75 47.20 45.90 46.99 47.81 47.59 48.10 48.24 45.86 43.51 43.67 44.26 45.77 45.14 44.43 44.62 44.44 44.24 47.42 47.39 45.70 50.64 50.08 52.53 53.00 53.99 53.81 53.89 53.94 54.79 55.19 56.82 57.10 57.24 57.72
47.22 47.25 46.77 46.21 46.42 45.81 45.08 44.77 45.70 46.77 47.36 47.37 46.86 46.98 47.65 47.62 47.92 47.73 47.08 46.49 47.20 48.36 49.42 45.29 50.55 49.99 52.74 53.11 53.93 54.16 54.08 55.00 55.06 56.65 56.48 56.18 55.91 55.95
47.03 46.87 46.77 45.83 46.75 46.37 44.93 44.73 45.34 46.05 48.81 50.60 49.36 50.51 50.91 50.66 49.94 47.68 45.52 45.14 47.02 48.51 51.17 49.63 50.67 50.49 51.86 52.55 54.62 54.90 55.66 55.81 55.88 56.16 55.96 55.03 54.43 54.85
46.18 46.30 48.07 46.02 46.33 46.12 44.82 44.78 43.96 43.92 45.04 45.55 46.72 47.79 48.01 47.83 49.26 47.47 47.22 48.57 48.83 48.28 51.76 49.84 50.58 50.75 49.57 53.90 55.67 56.65 55.85 55.02 54.57 54.45 54.33 53.90 53.51 53.35
44.54 44.87 46.30 47.28 46.13 46.02 46.94 45.80 44.58 45.32 45.43 45.69 45.73 45.43 45.90 46.01 46.38 47.86 49.66 52.40 49.31 48.69 54.36 52.96 51.24 52.09 53.53 53.34 54.83 55.79 55.30 54.43 53.93 53.27 52.93 52.57 52.14 53.28
44.21 45.49 47.04 46.13 45.54 46.68 47.25 46.86 46.29 45.94 45.80 44.57 44.03 43.64 43.89 44.38 45.63 47.81 50.92 53.88 55.84 53.56 56.24 54.98 54.83 54.10 52.68 51.52 50.58 53.14 53.16 53.22 52.94 52.19 52.19 52.56 52.13 52.89
45.28 46.45 45.73 45.86 46.32 46.43 47.05 46.13 45.90 45.39 44.39 43.18 42.99 42.77 44.11 45.26 46.82 48.91 52.07 55.53 56.97 58.07 58.16 57.26 54.95 54.85 54.30 52.02 50.59 50.50 50.02 50.85 52.08 51.23 51.28 51.28 52.00 52.62
45.50 45.16 45.37 45.52 45.84 45.77 45.77 45.56 45.20 45.18 44.30 43.15 43.24 43.42 44.97 45.25 45.85 48.27 49.88 55.68 55.08 55.02 56.39 56.71 56.18 54.54 52.67 52.23 51.07 49.23 49.46 47.54 50.49 50.87 51.76 52.06 52.32 52.43
45.09 45.07 44.30 44.31 43.36 43.92 44.29 44.38 44.89 44.84 43.95 44.47 43.65 42.81 43.62 44.51 45.09 47.63 49.67 54.53 54.16 52.63 51.95 53.29 55.24 55.09 53.84 52.04 48.87 48.58 48.28 48.74 50.64 50.52 50.28 49.04 49.86 50.64
43.25 42.20 41.82 42.37 41.48 42.39 42.25 42.61 43.56 43.65 43.42 43.77 44.17 42.79 42.95 43.57 44.35 46.26 48.70 53.17 53.84 52.15 51.14 51.86 52.32 51.28 50.52 50.59 50.95 48.37 48.52 49.24 50.18 50.37 50.08 47.95 48.00 50.57
41.39 41.43 41.69 41.92 42.12 42.16 42.20 42.12 41.79 43.33 42.88 43.56 43.62 42.45 43.10 43.58 44.05 44.95 46.77 52.67 51.89 52.89 51.81 52.57 52.17 50.60 47.90 45.95 50.58 49.04 48.64 49.14 49.38 49.60 49.79 48.40 47.51 48.57
41.73 41.84 41.47 41.65 42.04 41.68 41.80 42.00 42.10 42.69 41.51 43.52 43.84 42.36 42.73 43.07 43.21 43.84 45.30 46.97 51.09 52.49 52.38 52.89 53.03 53.22 50.71 48.37 48.83 49.06 47.62 50.23 49.77 49.14 48.29 47.43 48.50 49.06
41.77 41.35 41.69 41.65 42.02 42.31 42.38 43.12 43.05 42.73 43.71 43.69 43.82 42.32 42.39 42.82 42.65 43.46 44.18 45.54 50.75 51.62 52.06 53.09 54.86 55.12 54.83 53.39 49.78 48.26 49.27 46.28 51.04 50.12 48.61 47.56 46.41 46.84
41.27 40.64 41.79 42.55 42.53 42.98 43.27 43.79 44.13 42.75 43.47 43.93 43.97 42.82 42.52 42.89 42.44 42.72 43.44 44.23 48.52 51.84 50.83 51.65 54.15 54.98 52.98 51.27 49.30 48.66 47.77 45.68 44.94 44.64 44.84 46.29 47.77 44.79
41.14 41.16 41.91 41.76 42.98 43.12 43.35 43.52 43.39 43.45 43.69 43.77 43.90 43.18 42.54 41.84 42.53 42.94 43.25 43.98 45.14 51.90 50.88 50.06 52.28 53.71 53.24 51.78 49.70 48.19 46.97 46.06 46.79 46.19 45.00 44.61 45.38 46.04

GFSNE_sfc_wetblb_027.txt.gz
Wetbulb
42.38 41.57 41.29 41.15 41.08 40.63 40.10 39.23 36.90 32.66 33.02 36.14 37.36 39.71 42.03 43.01 45.84 46.31 44.83 49.80 52.94 53.07 53.90 53.89 52.93 53.07 53.52 54.03 54.45 54.58 54.98 56.06 56.64 57.35 58.68 59.21 59.68 61.12
43.56 42.07 41.08 40.98 40.80 40.51 40.19 39.38 38.33 36.63 33.78 36.97 38.39 40.18 42.28 45.59 45.98 46.36 44.74 50.35 50.91 51.66 52.80 53.54 53.28 52.61 53.07 53.30 53.72 53.54 54.79 55.88 56.09 56.54 57.45 58.61 58.75 60.43
42.87 43.04 41.79 41.53 40.53 40.18 39.86 39.17 38.39 37.63 35.48 37.32 39.72 41.30 40.96 41.13 42.78 42.75 43.89 42.67 43.63 51.17 51.87 52.78 53.29 53.50 53.57 52.98 53.28 53.64 54.53 55.45 55.59 55.75 56.70 57.44 58.29 59.51
42.72 42.34 42.37 44.01 40.08 39.77 39.40 38.69 38.53 38.51 38.01 36.40 38.40 39.57 39.77 40.76 40.71 40.49 43.46 45.36 44.48 49.21 51.31 51.60 52.94 53.51 54.10 53.89 53.93 53.92 54.14 54.65 55.08 55.35 56.13 57.03 57.74 58.53
42.97 42.78 42.07 40.69 38.76 38.68 38.92 38.72 38.50 41.40 39.17 38.32 37.79 39.26 39.33 39.74 40.07 40.46 41.26 42.91 44.89 49.06 50.88 51.91 53.11 54.02 54.18 53.86 53.30 53.85 54.21 54.25 54.58 54.85 54.92 55.85 56.88 57.60
43.80 42.60 41.93 41.04 39.47 38.73 38.90 38.46 39.54 39.05 38.74 38.19 38.15 38.30 38.51 40.35 39.64 39.88 39.76 42.05 42.24 45.55 48.67 50.33 51.30 51.93 52.53 53.20 53.06 53.31 53.26 53.75 54.51 54.67 54.55 55.17 55.96 56.51
42.65 43.19 42.35 43.54 47.96 43.27 40.92 39.77 39.96 39.08 38.73 38.12 37.72 38.25 38.92 38.68 37.08 40.07 39.66 40.86 42.08 43.63 44.22 45.43 46.29 47.00 48.06 50.65 51.34 52.60 52.82 53.88 54.49 54.80 54.46 54.29 55.02 56.14
41.46 40.71 41.93 48.57 48.55 49.97 49.66 49.25 44.41 40.31 38.77 37.61 38.45 38.41 39.09 39.59 40.86 40.26 39.83 40.50 39.22 45.70 44.90 45.22 47.46 46.65 47.71 48.44 50.89 51.79 52.29 53.27 53.97 54.14 54.07 54.33 55.30 56.25
40.66 40.04 41.10 45.39 46.27 42.61 48.46 49.91 48.59 47.93 47.18 40.53 38.08 38.75 39.55 40.64 39.46 40.50 41.14 42.40 43.06 46.41 46.78 44.79 47.62 46.83 48.39 48.94 51.53 52.54 53.16 53.78 53.59 53.54 53.58 54.73 55.25 56.22
40.26 39.53 39.54 39.84 42.51 41.57 40.12 39.68 39.96 40.67 41.85 43.06 41.41 40.76 40.40 42.54 42.94 44.48 45.15 45.52 46.30 46.83 47.59 43.44 46.99 46.14 48.43 49.22 51.63 52.04 52.93 53.30 53.03 53.27 53.87 54.45 54.33 55.21
40.22 40.15 39.94 39.72 47.09 48.09 40.80 39.27 39.28 40.27 46.03 48.44 48.34 48.29 48.46 48.84 48.20 45.93 44.23 43.60 42.54 43.93 46.80 45.64 46.10 46.67 47.84 47.28 48.62 52.03 52.63 53.00 52.95 53.51 54.08 54.42 53.62 54.29
39.89 41.30 46.92 42.09 48.68 48.10 39.85 38.96 38.04 39.16 40.52 40.41 41.21 42.37 44.61 44.09 48.02 46.43 44.94 42.83 42.78 42.32 46.32 46.09 47.19 46.87 45.51 48.67 49.57 50.78 51.48 52.80 52.24 52.42 52.82 54.12 53.55 56.66
40.42 40.65 43.68 48.79 48.81 47.99 46.09 40.00 40.72 42.58 43.01 39.95 39.91 40.20 41.26 44.15 45.06 44.92 45.65 45.26 43.66 43.46 47.82 49.69 48.18 47.59 46.44 47.39 49.08 50.66 51.24 51.37 50.27 51.47 52.54 53.84 54.19 54.65
40.07 40.00 42.17 50.05 48.82 47.90 45.80 46.40 47.15 46.42 39.83 38.71 38.27 38.94 40.22 42.45 43.43 44.58 46.10 47.35 48.89 49.86 50.70 51.14 49.68 48.20 47.05 46.26 46.52 49.53 49.42 50.33 50.55 51.27 53.16 53.99 53.11 53.22
41.22 43.86 48.55 50.09 48.22 46.30 46.84 46.56 45.97 39.95 38.15 37.50 37.04 38.45 41.83 42.37 43.68 45.58 47.07 49.09 52.91 55.17 53.87 52.45 50.82 48.75 48.15 47.13 46.16 47.47 47.34 49.99 51.89 52.32 52.78 52.42 51.96 51.69
47.82 46.18 46.28 45.51 45.55 43.82 43.78 42.91 41.21 38.99 38.38 37.19 36.85 39.74 42.10 42.25 43.61 45.54 45.78 48.54 53.18 51.56 53.37 54.58 52.96 50.48 48.59 48.02 47.92 47.60 49.64 50.07 52.37 52.01 51.79 50.82 50.19 50.02
42.15 41.15 40.17 39.68 39.27 39.05 39.19 39.33 38.61 38.22 37.40 36.98 37.05 40.11 40.31 42.47 43.47 45.28 46.12 49.44 51.31 49.60 49.08 50.73 52.50 53.06 52.94 52.05 49.89 49.93 49.91 50.22 50.52 49.76 49.74 47.99 47.75 48.71
41.03 39.30 39.12 39.26 37.87 37.14 36.76 36.51 36.93 38.36 37.00 36.89 39.43 40.09 40.03 41.98 42.98 44.14 45.42 47.05 50.87 50.00 49.09 49.46 49.50 48.70 48.73 49.10 50.39 48.49 48.79 48.62 49.50 49.07 48.70 47.07 45.60 46.36
39.26 39.10 38.20 38.47 37.50 36.89 36.39 35.96 35.61 36.41 37.05 37.58 42.89 39.51 40.99 42.30 42.59 42.82 43.95 45.83 50.73 50.63 50.34 50.87 49.67 47.84 45.25 43.26 47.89 47.93 48.27 47.87 47.77 46.48 47.46 45.26 44.02 44.88
39.99 38.12 38.18 38.54 37.13 36.36 36.41 36.36 35.94 37.25 40.09 39.74 42.26 39.71 41.26 41.78 41.83 41.94 42.76 43.75 48.56 50.74 50.11 51.02 50.11 48.39 46.04 44.82 45.01 44.65 46.25 48.16 47.51 45.86 44.56 45.68 46.80 48.16
38.72 38.18 38.67 37.59 37.30 36.80 36.94 37.04 37.68 38.43 40.19 39.36 42.02 39.65 40.80 41.48 41.42 42.02 42.57 43.76 45.87 49.54 49.94 50.75 50.48 50.64 49.51 49.07 45.45 44.84 44.11 43.90 46.14 46.25 45.94 45.10 42.90 42.99
38.07 37.68 37.50 37.56 37.84 37.43 37.50 37.41 37.71 38.19 38.19 38.99 39.26 38.96 39.93 41.29 41.13 41.57 42.07 42.17 43.16 45.31 51.30 50.45 50.07 49.67 48.87 46.76 45.01 43.45 42.72 43.91 44.58 44.70 44.77 44.79 44.71 42.43
37.75 37.54 37.09 37.72 37.84 37.49 37.44 37.62 37.75 38.26 38.14 37.88 38.57 38.58 39.44 39.67 41.20 41.83 41.96 42.52 43.15 44.73 49.38 49.66 49.99 50.22 48.32 47.48 46.07 44.78 43.93 44.55 44.41 43.56 43.77 44.62 44.80 46.12

GFSNE_sfc_wetblb_030.txt.gz
Wetbulb
44.66 43.43 42.36 41.19 40.53 39.91 39.01 38.26 36.41 32.03 32.68 35.52 36.50 38.23 40.07 41.37 44.51 45.38 44.59 49.40 52.17 52.23 52.55 52.74 52.87 53.18 53.56 53.94 54.15 54.33 54.71 55.37 55.09 56.49 57.75 57.91 58.32 59.51
45.38 42.66 40.91 40.02 40.47 39.69 39.25 38.37 37.53 35.72 33.00 35.87 36.90 38.48 40.14 44.01 45.01 45.91 44.70 50.27 51.60 51.86 51.87 52.57 51.88 52.50 52.97 53.19 53.21 53.69 53.99 54.07 54.46 55.22 56.67 56.93 57.59 58.29
45.14 43.16 41.73 40.50 40.71 39.32 38.83 37.88 37.23 36.56 34.83 35.91 37.51 39.02 39.29 40.32 42.05 41.68 43.11 41.70 42.19 49.98 50.97 51.24 52.34 52.28 52.30 52.37 53.10 53.24 53.37 53.59 54.49 55.51 55.81 55.41 57.32 57.54
43.50 43.09 42.15 42.86 39.57 39.30 38.88 37.88 37.51 37.07 36.69 34.87 36.41 38.31 38.95 39.54 40.00 39.81 42.56 44.43 42.08 47.74 50.23 50.74 51.06 52.31 53.40 53.14 54.25 54.28 53.72 53.73 53.99 54.88 55.89 55.79 56.83 57.08
44.21 43.56 42.92 41.97 39.49 38.28 37.99 37.70 37.38 40.01 36.90 36.38 36.34 38.19 38.59 38.96 39.11 39.22 39.57 40.53 43.22 47.55 49.64 50.63 51.04 51.48 53.24 53.80 53.65 53.61 53.74 53.72 53.87 54.39 54.72 55.18 55.93 56.96
44.45 44.26 42.99 42.45 41.44 39.03 38.86 37.95 38.00 37.40 37.39 37.39 37.30 37.59 38.03 38.91 38.33 38.20 38.71 39.07 40.09 43.68 46.78 48.57 49.87 50.69 51.57 52.57 53.58 53.18 52.64 52.89 53.38 54.47 54.53 54.47 54.53 55.48
43.03 43.36 42.98 44.53 47.86 43.98 40.69 37.33 37.54 37.05 37.53 37.39 37.07 37.14 37.05 37.21 36.72 37.75 37.01 39.31 40.76 41.69 41.96 43.01 43.81 45.07 46.95 50.23 51.54 52.27 52.37 52.68 53.54 54.14 54.28 54.05 54.27 54.43
41.69 41.99 43.00 48.57 49.21 50.82 49.66 47.49 42.72 38.68 37.81 37.66 37.55 36.94 37.03 37.98 38.06 37.50 38.84 37.97 37.51 42.63 42.02 41.94 45.48 45.34 46.65 47.21 49.84 51.24 51.52 52.35 52.96 53.79 54.01 54.22 54.18 54.01
42.72 41.56 41.87 45.63 47.64 44.57 50.09 50.03 49.32 49.88 47.74 39.97 37.65 37.14 37.08 38.22 38.15 38.28 39.08 39.21 39.56 42.66 44.26 43.38 47.16 46.44 48.17 48.58 51.10 51.36 51.86 52.17 52.24 52.73 53.33 53.98 54.18 54.33
42.21 41.37 42.14 41.19 43.51 41.85 40.26 40.17 39.87 40.22 41.32 42.46 39.85 39.64 39.73 39.96 39.35 41.29 41.68 43.19 44.93 45.89 46.83 42.77 46.39 45.64 47.48 48.33 50.97 51.41 51.77 51.92 51.92 53.01 53.77 53.57 53.46 54.57
40.82 41.07 40.98 40.35 47.15 48.44 39.53 38.47 37.94 39.18 45.17 47.82 48.01 48.59 48.55 48.10 47.33 44.27 42.43 42.09 41.69 43.57 46.46 45.04 45.62 45.54 46.97 47.65 49.21 51.23 51.09 51.78 52.46 53.60 53.74 53.40 53.82 54.52
39.36 40.31 45.88 41.62 49.32 49.24 38.77 38.02 37.17 37.97 38.94 40.32 41.13 41.47 43.32 42.31 46.76 44.22 43.35 42.07 42.09 41.35 45.64 44.18 44.66 45.41 44.51 48.12 48.66 49.40 50.35 51.76 52.37 52.72 52.99 53.34 53.33 52.98
39.40 40.49 42.69 48.47 50.87 49.53 44.67 38.89 39.34 40.41 42.41 40.32 38.14 38.46 39.45 40.13 41.48 43.53 44.75 43.87 42.22 42.02 46.21 46.67 46.65 46.11 46.81 45.98 47.69 49.22 50.19 51.71 51.38 51.56 52.42 52.61 52.12 52.45
39.95 41.82 43.96 49.80 50.42 49.37 45.90 45.98 46.85 45.65 39.26 37.22 36.96 37.10 37.52 39.70 42.03 43.46 44.51 46.33 47.53 46.67 47.66 48.53 46.62 47.11 46.38 45.87 45.07 49.41 50.10 50.77 50.69 49.36 49.76 53.11 52.39 53.50
41.80 44.05 48.13 50.26 49.83 47.47 47.38 46.86 45.60 39.28 36.98 36.13 35.37 35.65 38.65 41.50 42.31 44.52 46.58 47.91 49.82 53.74 52.09 49.23 49.32 48.63 47.66 45.84 45.25 46.90 47.17 48.68 48.94 48.72 50.26 52.54 53.26 53.48
46.67 45.46 47.38 46.72 45.61 44.09 43.18 42.19 40.00 38.27 37.69 35.49 35.11 36.61 40.23 40.79 42.75 45.11 44.88 46.63 50.46 50.65 51.34 51.31 50.44 49.19 47.29 47.13 46.58 46.36 47.70 45.39 48.70 50.69 52.63 52.55 52.98 52.96
44.95 43.23 41.47 39.88 39.25 38.23 38.60 38.15 37.69 37.53 35.88 35.30 35.56 38.75 39.34 40.97 43.00 44.97 45.35 46.65 49.02 48.97 49.48 49.50 50.96 49.94 48.44 47.31 46.26 46.69 47.84 48.17 50.24 50.88 50.08 48.41 48.92 49.54
42.23 39.72 38.37 37.83 36.69 36.35 35.87 35.55 36.09 36.86 35.38 35.59 39.71 38.68 38.84 40.90 42.59 43.89 45.01 45.75 49.14 48.82 48.53 49.63 49.44 48.76 49.11 49.65 50.11 48.82 49.95 49.66 50.47 50.31 49.63 47.69 46.77 46.08
39.52 38.68 38.14 37.23 36.52 35.91 35.29 35.27 34.56 35.20 35.93 37.53 41.31 38.10 39.56 41.72 42.13 42.68 43.59 45.00 49.92 49.69 49.24 49.94 49.01 47.72 45.27 44.00 48.23 48.23 49.29 49.22 48.97 48.40 48.43 46.88 46.94 46.03
39.71 39.27 37.67 36.58 36.13 35.22 35.63 35.29 34.96 36.59 37.53 39.08 40.79 38.13 39.09 41.19 41.38 41.77 42.57 43.45 47.24 49.85 48.57 48.65 48.07 47.69 46.51 45.79 45.95 45.58 45.81 49.03 48.28 46.47 44.80 45.51 46.25 48.16
39.37 38.42 37.31 37.12 36.15 36.19 36.17 36.41 37.02 37.70 38.06 38.49 39.39 37.45 38.68 40.74 40.75 41.61 42.26 43.79 45.36 48.27 47.67 47.17 48.14 49.92 49.18 49.28 45.42 44.25 44.20 43.31 46.03 46.26 46.56 45.23 42.66 42.61
39.08 36.99 37.25 37.49 37.20 36.78 36.73 36.71 36.79 37.25 37.25 37.39 37.15 37.02 38.15 40.28 40.34 40.98 41.60 41.96 43.08 46.75 47.73 48.55 49.43 48.94 48.15 46.19 44.24 42.88 42.82 43.86 44.37 44.62 44.72 44.56 44.45 41.89
38.07 37.11 37.15 37.86 37.83 37.14 37.01 36.96 37.09 37.27 36.58 36.50 37.00 36.82 37.46 38.89 40.37 41.11 41.50 42.47 43.33 44.84 48.47 47.80 48.63 48.98 47.34 45.91 44.65 43.39 42.44 44.28 43.46 42.95 43.88 44.43 44.97 45.91

GFSNE_sfc_wetblb_033.txt.gz
Wetbulb
47.36 45.16 44.65 42.81 41.03 39.63 38.59 38.19 37.24 32.99 33.23 35.51 36.21 36.75 38.32 40.27 43.48 43.74 43.37 48.83 52.39 52.49 52.37 52.64 53.12 53.55 53.93 54.27 54.54 54.79 54.96 55.26 55.63 55.90 56.42 56.05 57.35 58.46
47.65 45.49 43.30 40.59 42.10 40.18 38.67 38.06 37.65 36.42 33.58 35.15 35.23 36.68 38.30 42.40 43.63 44.99 44.44 50.08 51.63 51.91 52.19 53.18 52.42 52.70 52.78 52.86 53.39 53.88 53.99 54.28 54.89 55.36 54.95 55.66 56.96 57.46
47.14 45.44 43.59 42.50 42.07 40.90 38.89 37.61 36.93 36.56 35.26 35.17 35.82 37.00 37.17 38.48 40.83 41.73 43.02 41.68 41.95 49.98 51.07 51.07 51.44 51.60 52.10 52.49 52.79 52.97 53.18 53.32 54.26 54.58 54.68 54.91 56.54 56.75
46.59 45.42 44.33 42.49 41.79 40.90 40.16 38.35 38.21 36.38 36.11 34.33 35.35 36.63 37.50 38.56 39.14 39.46 41.88 43.99 41.57 47.00 49.83 50.24 50.57 50.91 51.48 51.96 52.70 53.37 53.32 53.57 54.04 54.19 54.33 55.25 55.86 57.06
47.55 45.50 45.05 42.00 40.77 39.91 39.85 38.59 37.43 39.46 36.10 35.50 35.10 36.55 37.50 38.10 38.52 38.82 39.05 39.12 41.87 46.99 49.61 50.46 50.62 50.97 51.46 52.75 53.06 53.27 53.40 53.68 54.34 54.53 53.88 54.05 54.79 55.76
47.87 47.17 45.98 42.55 41.98 40.06 40.04 39.24 37.79 37.21 35.61 35.33 35.36 36.23 37.19 38.19 37.61 37.21 37.74 38.75 39.72 43.01 45.96 47.86 49.11 49.74 50.54 50.95 51.67 52.73 52.91 53.48 54.01 54.14 54.04 53.74 53.81 54.75
48.41 47.50 45.46 45.73 48.71 44.66 41.57 38.75 37.43 36.36 35.51 35.62 35.67 36.21 36.36 36.39 36.36 37.53 36.85 38.78 39.36 40.24 40.64 41.48 42.11 43.05 44.35 48.30 50.08 52.06 52.30 52.81 53.74 54.05 53.81 53.20 54.19 54.18
46.46 45.88 45.13 48.43 49.27 50.33 49.48 46.88 42.17 37.60 35.87 36.17 36.12 36.30 36.28 36.93 37.35 37.28 37.88 35.71 36.11 39.74 39.58 40.29 42.64 42.16 43.43 44.34 48.57 50.29 51.22 52.04 52.56 53.12 53.26 53.40 53.91 54.16
47.37 45.34 43.96 45.80 48.25 46.86 50.68 50.14 48.54 48.21 44.45 39.34 37.29 37.25 36.87 37.45 37.54 36.97 37.08 37.46 38.02 40.81 41.01 39.85 43.14 42.78 45.34 46.60 49.70 50.69 51.43 51.59 51.62 52.13 52.46 52.82 53.97 54.23
46.52 44.75 43.41 44.21 45.42 45.13 45.01 42.80 42.32 43.90 44.86 45.72 40.01 39.52 38.71 39.45 39.03 40.52 40.45 40.45 41.82 43.01 44.23 40.86 45.01 44.75 46.97 48.04 50.84 51.04 51.38 51.24 51.12 51.91 52.37 52.80 53.20 53.84
44.56 43.94 43.58 43.39 48.17 49.76 42.24 39.95 38.50 38.85 46.28 47.56 46.91 47.42 48.49 49.10 47.75 42.88 40.60 39.26 38.44 41.31 45.15 43.85 44.54 44.96 46.69 47.13 48.43 50.68 51.10 51.14 51.39 51.94 52.41 52.84 52.92 53.60
43.53 43.29 46.94 44.49 50.94 49.99 40.38 38.45 36.48 36.78 38.32 39.04 39.91 42.35 44.37 41.25 46.22 42.78 40.88 38.47 39.98 40.52 44.80 43.37 44.02 44.61 43.47 47.28 48.07 48.71 49.58 51.03 51.01 51.60 52.44 53.17 52.75 51.88
41.06 40.71 43.56 48.46 51.83 49.07 43.94 38.42 38.33 39.16 41.36 39.91 39.05 37.55 37.95 38.51 38.94 40.16 41.85 42.06 41.01 41.21 45.35 46.16 45.28 45.14 44.54 45.78 47.78 48.77 49.30 49.69 50.21 51.35 52.33 52.20 52.24 52.60
40.49 41.55 43.95 50.56 50.95 47.84 43.34 46.46 46.89 45.47 39.49 36.83 36.05 36.09 35.73 36.78 39.62 41.96 43.64 44.30 45.11 44.02 45.45 46.62 45.13 45.52 45.02 44.92 44.68 47.77 48.72 50.30 51.25 50.90 50.81 52.51 52.51 52.56
41.89 44.17 49.70 50.92 50.52 47.65 47.62 47.75 46.06 38.64 36.42 35.63 34.57 34.21 35.17 38.96 40.98 43.10 45.30 47.13 48.51 50.09 50.62 49.87 46.92 48.28 47.16 45.88 45.91 47.04 47.82 49.28 49.87 49.41 50.60 51.46 51.52 52.82
45.47 47.66 48.60 47.69 46.72 46.16 43.94 42.24 38.96 37.50 36.92 34.64 33.86 34.52 37.20 39.77 41.71 43.91 44.49 46.15 49.42 47.19 49.31 49.60 50.14 48.73 46.08 46.79 47.08 46.54 47.78 46.54 48.44 49.06 50.84 52.68 53.42 53.98
44.97 44.33 42.43 41.84 40.39 39.16 37.97 36.94 37.09 36.63 34.80 34.10 34.20 36.56 38.13 40.76 41.97 44.57 45.38 46.85 48.88 47.42 47.64 48.55 49.02 48.70 48.24 47.52 45.85 47.01 46.71 46.99 48.37 49.97 51.23 50.47 51.09 51.64
42.76 40.82 40.28 39.49 37.87 36.86 35.52 35.12 35.23 35.96 34.47 34.91 37.18 36.70 38.23 40.49 42.20 43.78 45.24 46.65 48.32 47.24 46.56 47.60 47.36 47.13 47.22 47.86 49.27 46.45 47.01 48.47 50.58 50.52 49.95 47.57 45.98 48.08
40.25 39.57 38.53 37.63 36.73 36.19 34.94 34.50 33.58 34.34 35.33 37.52 37.11 36.42 39.49 41.13 42.05 42.66 44.05 45.70 48.22 48.35 48.10 48.37 47.32 45.15 43.28 42.26 48.03 47.30 48.30 49.61 49.57 49.16 49.65 48.69 46.36 46.61
39.44 38.55 37.50 37.38 36.94 36.11 34.69 34.30 34.82 35.77 36.68 37.77 36.50 36.69 39.48 40.57 41.18 41.64 42.89 44.18 48.07 48.01 47.71 48.35 47.60 46.56 45.04 44.72 45.95 45.55 46.01 49.25 47.61 46.27 45.60 46.65 47.30 48.23
38.86 38.62 38.32 37.55 37.07 36.65 35.26 36.46 36.64 36.96 36.74 36.34 36.24 37.36 39.14 40.13 40.62 41.53 42.50 44.86 47.87 47.67 46.40 46.63 47.99 50.06 48.85 48.55 45.04 43.77 44.43 43.67 46.95 47.27 47.11 46.31 45.05 44.56
39.13 37.98 37.53 37.60 37.53 36.65 36.40 36.22 36.17 36.02 35.78 35.82 35.54 37.31 38.98 39.79 40.21 41.05 41.93 43.16 46.21 47.21 46.99 47.98 48.83 48.73 47.36 45.58 43.82 43.72 43.64 44.86 44.65 44.58 44.52 44.51 45.09 43.60
38.13 37.69 37.51 37.88 37.76 36.86 36.45 36.58 36.03 35.53 35.56 35.46 35.20 36.01 38.32 38.40 40.33 41.48 41.92 43.24 44.69 47.44 47.60 47.13 47.64 47.71 46.07 45.87 45.15 44.15 44.14 44.48 42.35 42.76 44.01 44.36 44.58 45.70